Lamoni, IA

11:38 AM CST on November 23, 2017 (GMT -0600)
Lamoni Municipal

Weather History for KLWD - December, 2013

Change the Weather History Date:

Wednesday, December 11, 2013

  Actual Average Record
Temperature  
Mean Temperature 14 °F 28 °F  
Max Temperature 27 °F 36 °F 65 °F (1965)
Min Temperature 0 °F 19 °F -5 °F (1962)
Degree Days  
Heating Degree Days 51 37  
Month to date heating degree days 475 390  
Since 1 July heating degree days 1710 1638  
Cooling Degree Days 0 0  
Month to date cooling degree days 0 0  
Year to date cooling degree days 1093 946  
Moisture  
Dew Point 4 °F    
Average Humidity 67    
Maximum Humidity 80    
Minimum Humidity 53    
Precipitation  
Precipitation T in 0.05 in 1.20 in (1949)
Month to date precipitation 0.20 0.58  
Sea Level Pressure  
Sea Level Pressure 30.52 in    
Wind  
Wind Speed 11 mph (NW)    
Max Wind Speed 29 mph    
Max Gust Speed 35 mph    
Visibility 10 miles    
Events Snow    
T = Trace of Precipitation, MM = Missing Value Source: NWS Daily Summary

Daily Weather History Graph

Daily Weather History Graph

Search for Another Location

Airport or City:

Trip Planner

Search our weather history database for the weather conditions in past years. The results will help you decide how hot, cold, wet, or windy it might be!

Date:

Astronomy

Dec. 11, 2013 Rise Set
Actual Time 7:29 AM CST 4:48 PM CST
Civil Twilight 6:58 AM CST 5:19 PM CST
Nautical Twilight 6:24 AM CST 5:53 PM CST
Astronomical Twilight 5:51 AM CST 6:26 PM CST
Moon 1:23 PM CST (12/11) 1:50 AM CST (12/11)
Length of Visible Light 10h 20m
Length of Day
9h 19m
Waxing Gibbous, 72% of the Moon is Illuminated
Dec 11
Waxing Gibbous
Dec 17
Full
Dec 25
Last Quarter
Jan 1
New
Jan 7
First Quarter

Hourly Weather History & Observations

Time (CST) Temp. Windchill Dew Point Humidity Pressure Visibility Wind Dir Wind Speed Gust Speed Precip Events Conditions
12:53 AM 25.0 °F 16.3 °F 15.1 °F 66% 30.23 in 10.0 mi SW 8.1 mph - N/A   Partly Cloudy
1:53 AM 21.9 °F 11.7 °F 15.1 °F 75% 30.27 in 10.0 mi West 9.2 mph - N/A   Mostly Cloudy
2:53 AM 25.0 °F 14.2 °F 18.0 °F 75% 30.30 in 10.0 mi NW 11.5 mph - N/A   Overcast
3:22 AM 26.1 °F 15.0 °F 19.9 °F 78% 30.26 in 10.0 mi NNW 12.7 mph - N/A   Overcast
3:53 AM 26.1 °F 11.0 °F 19.0 °F 75% 30.32 in 10.0 mi NNW 24.2 mph 35.7 mph N/A   Overcast
4:10 AM 21.9 °F 5.1 °F 15.1 °F 75% 30.30 in 10.0 mi North 25.3 mph 33.4 mph N/A   Scattered Clouds
4:53 AM 19.0 °F 2.7 °F 12.9 °F 77% 30.39 in 10.0 mi North 20.7 mph 31.1 mph N/A   Clear
5:15 AM 18.0 °F 2.2 °F 12.0 °F 78% 30.36 in 10.0 mi North 18.4 mph 24.2 mph N/A   Mostly Cloudy
5:33 AM 18.0 °F 2.6 °F 12.0 °F 78% 30.37 in 10.0 mi North 17.3 mph 25.3 mph N/A   Scattered Clouds
5:53 AM 18.0 °F 2.6 °F 12.0 °F 78% 30.45 in 10.0 mi NNW 17.3 mph 24.2 mph N/A   Mostly Cloudy
6:38 AM 16.0 °F -0.9 °F 10.0 °F 77% 30.43 in 9.0 mi North 19.6 mph 26.5 mph 0.00 in Snow Light Snow
6:53 AM 16.0 °F 1.1 °F 9.0 °F 74% 30.51 in 10.0 mi North 15.0 mph 24.2 mph 0.00 in   Overcast
7:41 AM 10.9 °F -5.4 °F 3.9 °F 73% 30.49 in 8.0 mi North 15.0 mph - 0.00 in Snow Light Snow
7:53 AM 10.0 °F -5.2 °F 3.9 °F 76% 30.56 in 8.0 mi North 12.7 mph - 0.00 in Snow Light Snow
8:22 AM 9.0 °F -7.9 °F 1.0 °F 70% 30.52 in 10.0 mi North 15.0 mph - 0.00 in   Scattered Clouds
8:53 AM 9.0 °F -7.9 °F -0.0 °F 67% 30.61 in 10.0 mi North 15.0 mph - 0.00 in   Clear
9:53 AM 8.1 °F -8.4 °F -2.0 °F 64% 30.66 in 10.0 mi North 13.8 mph - N/A   Clear
10:53 AM 8.1 °F -9.0 °F -2.9 °F 61% 30.66 in 10.0 mi North 15.0 mph - N/A   Clear
11:53 AM 10.0 °F -2.9 °F -2.9 °F 56% 30.66 in 10.0 mi North 9.2 mph - N/A   Clear
12:53 PM 12.0 °F 1.5 °F -2.0 °F 53% 30.64 in 10.0 mi Variable 6.9 mph - N/A   Clear
1:53 PM 12.0 °F -0.4 °F -2.9 °F 51% 30.64 in 10.0 mi WNW 9.2 mph - N/A   Clear
2:53 PM 10.9 °F -3.4 °F -2.0 °F 56% 30.63 in 10.0 mi WNW 11.5 mph - N/A   Clear
3:53 PM 10.0 °F -0.9 °F -2.0 °F 58% 30.65 in 10.0 mi NW 6.9 mph - N/A   Clear
4:53 PM 7.0 °F -1.7 °F -2.9 °F 64% 30.66 in 10.0 mi NW 4.6 mph - N/A   Clear
5:53 PM 3.0 °F - -4.0 °F 73% 30.66 in 10.0 mi Calm Calm - N/A   Clear
6:53 PM 3.0 °F -6.4 °F -5.1 °F 69% 30.66 in 10.0 mi West 4.6 mph - N/A   Clear
7:53 PM 3.0 °F -6.4 °F -4.0 °F 73% 30.66 in 10.0 mi SSW 4.6 mph - N/A   Clear
8:53 PM 1.0 °F -11.7 °F -5.1 °F 75% 30.66 in 10.0 mi SW 6.9 mph - N/A   Clear
9:53 PM 1.0 °F -12.9 °F -6.0 °F 72% 30.64 in 10.0 mi South 8.1 mph - N/A   Clear
10:53 PM 1.9 °F -12.9 °F -5.1 °F 72% 30.61 in 10.0 mi South 9.2 mph - N/A   Clear
11:53 PM 1.9 °F -11.8 °F -5.1 °F 72% 30.60 in 10.0 mi SSW 8.1 mph - N/A   Clear